Location: Choisy
(48.7685°N, 2.4187°E)
Time: 22:11:58
(UTC+00:00)

CENTAUR R/B - Pass Details

Date: 24 October 2021
Orbit: 728 x 1459 km, 63.4° (Epoch: 26 November)

Event Time Altitude Azimuth Distance (km) Brightness Sun altitude
Rises 17:58:04 0° 300° (WNW) 3,830 6.6 -12.9°
Reaches altitude 10° 18:01:02 10° 313° (NW) 2,994 5.7 -13.4°
Maximum altitude 18:07:09 28° 10° (N) 2,164 4.2 -14.4°
Enters shadow 18:12:34 15° 59° (ENE) 3,030 4.5 -15.3°
